Terminal Aerodrome Forecast
Issued by NWS

Home | Current Version | Previous Version | Text Only | Print | Product List | Glossary On
Versions: 1 2 3 4 5 6 7 8 9 10 11 12 13 14 15 16 17 18 19 20 21 22 23 24
000
FTUS45 KGJT 292333
TAFMTJ
TAF
KMTJ 292333Z 3000/3024 34003KT P6SM FEW100 OVC200
     FM300100 14005KT P6SM SCT100 OVC150
     FM300700 14005KT P6SM VCSH SCT060 OVC090
     FM301500 VRB03KT P6SM VCSH SCT060 OVC090
     FM301800 22005KT 4SM -RASN OVC030
     FM302100 20005KT 2SM -RA BR OVC015=

USA.gov is the U.S. government's official web portal to all federal, state and local government web resources and services.